Milk River, Alberta

11:41 PM MDT on March 24, 2017 (GMT -0600)
Milk River

Weather History for 71244 - November, 2013

Change the Weather History Date:

Tuesday, November 12, 2013

  Actual Average Record
Temperature  
Mean Temperature 30 °F -  
Max Temperature 48 °F - - ()
Min Temperature 11 °F - - ()
Degree Days  
Heating Degree Days 36    
Moisture  
Dew Point 24 °F    
Average Humidity 74    
Maximum Humidity 92    
Minimum Humidity 47    
Precipitation  
Precipitation 0.00 in - - ()
Sea Level Pressure  
Sea Level Pressure 30.27 in    
Wind  
Wind Speed 9 mph ()    
Max Wind Speed 20 mph    
Max Gust Speed 25 mph    
T = Trace of Precipitation, MM = Missing Value Source: Averaged Metar Reports

Daily Weather History Graph

Daily Weather History Graph

Search for Another Location

Airport or City:

Trip Planner

Search our weather history database for the weather conditions in past years. The results will help you decide how hot, cold, wet, or windy it might be!

Date:

Astronomy

Nov. 12, 2013 Rise Set
Actual Time 7:33 AM MST 4:50 PM MST
Civil Twilight 6:59 AM MST 5:24 PM MST
Nautical Twilight 6:21 AM MST 6:03 PM MST
Astronomical Twilight 5:43 AM MST 6:40 PM MST
Moon 2:29 PM MST (11/12) 2:02 AM MST (11/12)
Length of Visible Light 10h 25m
Length of Day
9h 16m
Waxing Gibbous, 77% of the Moon is Illuminated
Nov 12
Waxing Gibbous
Nov 17
Full
Nov 25
Last Quarter
Dec 2
New
Dec 9
First Quarter

Hourly Weather History & Observations

Time (MST) Temp. Windchill Dew Point Humidity Pressure Visibility Wind Dir Wind Speed Gust Speed Precip Events Conditions
12:00 AM 17.8 °F 5.2 °F 15.3 °F 90% 30.47 in - South 11.5 mph - N/A   Unknown
1:00 AM 17.2 °F 10.2 °F 14.9 °F 91% 30.45 in - SE 4.6 mph - N/A   Unknown
2:00 AM 14.7 °F 3.8 °F 12.2 °F 90% 30.44 in - SSE 8.1 mph - N/A   Unknown
3:00 AM 13.8 °F 2.7 °F 11.8 °F 92% 30.43 in - SSE 8.1 mph - N/A   Unknown
4:00 AM 15.3 °F 2.8 °F 13.1 °F 91% 30.40 in - SE 10.4 mph - N/A   Unknown
5:00 AM 17 °F - 14 °F 84% 30.38 in - SSE 13.8 mph - -  
5:00 AM 16.7 °F 2.6 °F 14.4 °F 91% 30.38 in - SSE 13.8 mph - N/A   Unknown
6:00 AM 16.0 °F 2.9 °F 13.8 °F 91% 30.38 in - SSE 11.5 mph - N/A   Unknown
7:00 AM 16.9 °F 6.4 °F 14.0 °F 88% 30.35 in - SSE 8.1 mph - N/A   Unknown
8:00 AM 16.2 °F 6.5 °F 12.6 °F 86% 30.34 in - SSE 6.9 mph - N/A   Unknown
9:00 AM 20.3 °F 6.1 °F 16.0 °F 83% 30.30 in - SSE 16.1 mph - N/A   Unknown
10:00 AM 24.3 °F 13.9 °F 18.0 °F 77% 30.29 in - South 10.4 mph - N/A   Unknown
11:00 AM 37 °F - 27 °F 57% 30.24 in - South 10.4 mph - -  
11:00 AM 36.7 °F 29.4 °F 27.1 °F 68% 30.24 in - South 10.4 mph - N/A   Unknown
12:00 PM 41.4 °F 36.8 °F 28.6 °F 60% 30.21 in - South 6.9 mph - N/A   Unknown
1:00 PM 46.6 °F - 27.5 °F 47% 30.19 in - East 2.3 mph - N/A   Unknown
2:00 PM 45.1 °F 40.3 °F 28.6 °F 52% 30.18 in - SW 9.2 mph - N/A   Unknown
3:00 PM 44.8 °F 36.9 °F 29.5 °F 55% 30.18 in - SW 19.6 mph 25.3 mph N/A   Unknown
4:00 PM 44.8 °F 42.4 °F 29.3 °F 55% 30.18 in - SSW 4.6 mph - N/A   Unknown
5:00 PM 42 °F - 31 °F 53% 30.19 in - SW 11.5 mph - -  
5:00 PM 41.5 °F 35.0 °F 30.6 °F 65% 30.19 in - SW 11.5 mph - N/A   Unknown
6:00 PM 42.4 °F 36.1 °F 31.6 °F 66% 30.18 in - SW 11.5 mph - N/A   Unknown
7:00 PM 44.4 °F 37.9 °F 33.6 °F 66% 30.19 in - WSW 13.8 mph - N/A   Unknown
8:00 PM 45.3 °F 37.6 °F 35.1 °F 67% 30.16 in - WSW 19.6 mph 25.3 mph N/A   Unknown
9:00 PM 40.3 °F 31.3 °F 33.8 °F 78% 30.17 in - WSW 18.4 mph - N/A   Unknown
10:00 PM 41.4 °F 39.4 °F 34.5 °F 77% 30.15 in - SE 3.5 mph - N/A   Unknown
11:00 PM 42 °F - 34 °F 66% 30.13 in - SE 2.3 mph - -  
11:00 PM 42.4 °F - 34.3 °F 73% 30.13 in - SE 2.3 mph - N/A   Unknown